User: anonymous   Login
Location: Unspecified
(0.0000°N, 0.0000°E)
Time: 17:50:19
(UTC+00:00)
Language:

Transit 2A - Orbit

View from above orbital plane
View from above orbital plane
View from above satellite
View from above satellite

Ground track
Ground track

The orbit data is extracted from the following two-line orbital elements,

1    45U 60007A   20017.50748236 -.00000082 +00000-0 +61581-5 0  9994
2    45 066.6950 061.3326 0248797 065.5185 297.1642 14.33662703044050
Epoch (UTC): 17 January 2020 12:10:46
Eccentricity: 0.0248797
inclination: 66.6950°
perigee height: 601 km
apogee height: 957 km
right ascension of ascending node: 61.3326°
argument of perigee: 65.5185°
revolutions per day: 14.33662703
mean anomaly at epoch: 297.1642°
orbit number at epoch: 4405

The dashed part of the orbit path shows where the satellite is in the earth's shadow,  

DLR